Location: Newark
(7.1028°S, 35.3258°W)
Time: 12:08:48
(UTC+00:00)

Vanguard 3 - Pass Details

Date: 20 February 2020
Orbit: 508 x 3262 km, 33.3° (Epoch: 30 March)

Event Time Altitude Azimuth Distance (km) Brightness Sun altitude
Rises 05:26:10 0° 219° (SW) 4,305 - -43.7°
Reaches altitude 10° 05:31:14 10° 196° (SSW) 2,744 - -42.6°
Maximum altitude 05:34:21 14° 166° (SSE) 2,142 - -41.8°
Exits shadow 05:36:28 11° 140° (SE) 2,114 9.8 -41.3°
Drops below altitude 10° 05:36:55 10° 134° (SE) 2,156 9.9 -41.2°
Sets 05:40:01 0° 106° (ESE) 2,812 10.8 -40.5°
